TimeCDT,TemperatureF,Dew PointF,Humidity,Sea Level PressureIn,VisibilityMPH,Wind Direction,Wind SpeedMPH,Gust SpeedMPH,PrecipitationIn,Events,Conditions,WindDirDegrees,DateUTC
12:15 AM,73.8,65.8,76,29.93,10.0,Calm,Calm,-,N/A,,Clear,0,2013-09-03 05:15:00
12:35 AM,73.2,65.7,77,29.93,10.0,Calm,Calm,-,N/A,,Clear,0,2013-09-03 05:35:00
12:55 AM,72.9,65.8,79,29.93,10.0,Calm,Calm,-,N/A,,Mostly Cloudy,0,2013-09-03 05:55:00
1:15 AM,73.6,65.3,75,29.94,10.0,Calm,Calm,-,N/A,,Scattered Clouds,0,2013-09-03 06:15:00
1:35 AM,74.3,65.3,73,29.94,10.0,Calm,Calm,-,N/A,,Mostly Cloudy,0,2013-09-03 06:35:00
1:55 AM,73.8,65.3,75,29.93,10.0,Calm,Calm,-,N/A,,Overcast,0,2013-09-03 06:55:00
2:15 AM,73.4,65.3,76,29.93,10.0,Calm,Calm,-,N/A,,Scattered Clouds,0,2013-09-03 07:15:00
2:35 AM,73.6,66.2,78,29.93,10.0,Calm,Calm,-,N/A,,Scattered Clouds,0,2013-09-03 07:35:00
2:55 AM,72.5,65.3,78,29.92,10.0,Calm,Calm,-,N/A,,Scattered Clouds,0,2013-09-03 07:55:00
3:15 AM,72.9,64.8,76,29.93,10.0,Calm,Calm,-,N/A,,Clear,0,2013-09-03 08:15:00
3:35 AM,71.8,65.3,80,29.93,10.0,Calm,Calm,-,N/A,,Clear,0,2013-09-03 08:35:00
3:55 AM,71.2,64.8,80,29.93,10.0,Calm,Calm,-,N/A,,Clear,0,2013-09-03 08:55:00
4:15 AM,70.9,64.9,81,29.93,10.0,Calm,Calm,-,N/A,,Clear,0,2013-09-03 09:15:00
4:35 AM,71.4,64.6,79,29.93,10.0,Calm,Calm,-,N/A,,Clear,0,2013-09-03 09:35:00
4:55 AM,70.7,65.1,82,29.94,10.0,Calm,Calm,-,N/A,,Clear,0,2013-09-03 09:55:00
5:15 AM,71.1,65.3,82,29.94,10.0,Calm,Calm,-,N/A,,Clear,0,2013-09-03 10:15:00
5:35 AM,71.2,65.3,81,29.95,10.0,Calm,Calm,-,N/A,,Clear,0,2013-09-03 10:35:00
6:15 AM,70.9,65.7,83,29.96,10.0,Calm,Calm,-,N/A,,Clear,0,2013-09-03 11:15:00
6:35 AM,70.3,65.7,85,29.96,10.0,Calm,Calm,-,N/A,,Clear,0,2013-09-03 11:35:00
6:55 AM,70.0,65.5,86,29.96,10.0,Calm,Calm,-,N/A,,Clear,0,2013-09-03 11:55:00
7:35 AM,70.2,65.7,86,29.97,10.0,Calm,Calm,-,N/A,,Clear,0,2013-09-03 12:35:00
8:15 AM,75.4,65.5,71,29.97,10.0,Calm,Calm,-,N/A,,Clear,0,2013-09-03 13:15:00
8:35 AM,78.3,65.7,65,29.97,10.0,Calm,Calm,-,N/A,,Scattered Clouds,0,2013-09-03 13:35:00
8:55 AM,80.1,65.5,61,29.97,10.0,Calm,Calm,-,N/A,,Scattered Clouds,0,2013-09-03 13:55:00
9:15 AM,82.8,66.2,57,29.98,10.0,Calm,Calm,-,N/A,,Clear,0,2013-09-03 14:15:00
9:35 AM,84.2,66.2,55,29.98,10.0,Calm,Calm,-,N/A,,Clear,0,2013-09-03 14:35:00
9:55 AM,86.0,64.9,49,29.98,10.0,Calm,Calm,-,N/A,,Clear,0,2013-09-03 14:55:00
10:15 AM,88.3,64.4,45,29.99,10.0,NNE,3.5,-,N/A,,Clear,30,2013-09-03 15:15:00
10:35 AM,90.3,63.3,40,29.99,10.0,Calm,Calm,-,N/A,,Clear,0,2013-09-03 15:35:00
10:55 AM,91.8,63.3,39,29.99,10.0,Calm,Calm,-,N/A,,Clear,0,2013-09-03 15:55:00
11:15 AM,93.7,62.8,36,29.99,10.0,SE,3.5,-,N/A,,Clear,140,2013-09-03 16:15:00
11:35 AM,95.0,60.3,31,29.99,10.0,ENE,4.6,-,N/A,,Clear,70,2013-09-03 16:35:00
11:55 AM,95.0,59.7,31,29.98,10.0,Calm,Calm,-,N/A,,Clear,0,2013-09-03 16:55:00
12:15 PM,96.1,60.3,30,29.97,10.0,North,3.5,-,N/A,,Clear,350,2013-09-03 17:15:00
12:35 PM,97.0,59.5,29,29.97,10.0,North,6.9,-,N/A,,Scattered Clouds,10,2013-09-03 17:35:00
12:55 PM,96.4,59.0,29,29.97,10.0,NNW,3.5,-,N/A,,Scattered Clouds,330,2013-09-03 17:55:00
1:15 PM,98.8,59.4,27,29.96,10.0,NE,4.6,-,N/A,,Clear,40,2013-09-03 18:15:00
1:35 PM,99.3,59.0,26,29.95,10.0,ENE,5.8,-,N/A,,Scattered Clouds,60,2013-09-03 18:35:00
1:55 PM,95.5,59.9,30,29.95,10.0,Calm,Calm,-,N/A,,Scattered Clouds,0,2013-09-03 18:55:00
2:15 PM,99.3,59.4,27,29.94,10.0,NNE,9.2,-,N/A,,Scattered Clouds,20,2013-09-03 19:15:00
2:35 PM,100.2,58.6,25,29.92,10.0,North,3.5,-,N/A,,Scattered Clouds,10,2013-09-03 19:35:00
2:55 PM,100.8,57.7,24,29.91,10.0,Calm,Calm,-,N/A,,Clear,0,2013-09-03 19:55:00
3:15 PM,98.4,58.1,26,29.90,10.0,Calm,Calm,-,N/A,,Clear,0,2013-09-03 20:15:00
3:35 PM,101.3,58.1,24,29.89,10.0,NNE,8.1,-,N/A,,Scattered Clouds,20,2013-09-03 20:35:00
3:55 PM,99.0,56.7,24,29.88,10.0,ENE,3.5,-,N/A,,Scattered Clouds,70,2013-09-03 20:55:00
4:15 PM,102.0,56.8,22,29.87,10.0,ENE,8.1,-,N/A,,Mostly Cloudy,60,2013-09-03 21:15:00
4:35 PM,101.1,55.8,22,29.87,10.0,North,4.6,-,N/A,,Scattered Clouds,360,2013-09-03 21:35:00
4:55 PM,101.3,57.6,23,29.87,10.0,North,10.4,-,N/A,,Scattered Clouds,10,2013-09-03 21:55:00
5:15 PM,100.4,56.7,23,29.86,10.0,ENE,5.8,-,N/A,,Clear,60,2013-09-03 22:15:00
5:35 PM,98.6,58.1,26,29.86,10.0,North,9.2,-,N/A,,Clear,350,2013-09-03 22:35:00
5:55 PM,98.6,60.1,28,29.87,10.0,NNW,5.8,-,N/A,,Clear,340,2013-09-03 22:55:00
6:15 PM,97.9,59.5,28,29.88,10.0,NW,5.8,-,N/A,,Clear,320,2013-09-03 23:15:00
6:35 PM,97.7,59.5,28,29.87,10.0,North,5.8,-,N/A,,Clear,360,2013-09-03 23:35:00
6:55 PM,96.4,59.4,29,29.88,10.0,North,4.6,-,N/A,,Clear,360,2013-09-03 23:55:00
7:15 PM,95.5,60.1,31,29.89,10.0,North,4.6,-,N/A,,Clear,350,2013-09-04 00:15:00
7:35 PM,91.2,62.2,38,29.90,10.0,South,12.7,18.4,N/A,,Clear,180,2013-09-04 00:35:00
7:55 PM,88.9,62.6,41,29.92,10.0,SSE,8.1,-,N/A,,Mostly Cloudy,160,2013-09-04 00:55:00
8:15 PM,87.1,63.1,45,29.92,10.0,South,3.5,-,N/A,,Scattered Clouds,190,2013-09-04 01:15:00
8:35 PM,86.0,63.7,47,29.92,10.0,Calm,Calm,-,N/A,,Scattered Clouds,0,2013-09-04 01:35:00
8:55 PM,84.9,64.4,50,29.92,10.0,South,3.5,-,N/A,,Clear,170,2013-09-04 01:55:00
9:15 PM,84.0,64.4,52,29.93,10.0,South,3.5,-,N/A,,Clear,190,2013-09-04 02:15:00
9:35 PM,82.9,64.6,54,29.93,10.0,Calm,Calm,-,N/A,,Clear,0,2013-09-04 02:35:00
9:55 PM,81.0,65.3,59,29.94,10.0,Calm,Calm,-,N/A,,Clear,0,2013-09-04 02:55:00
10:15 PM,81.0,65.3,59,29.94,10.0,Calm,Calm,-,N/A,,Clear,0,2013-09-04 03:15:00
10:35 PM,80.4,65.3,60,29.95,10.0,Calm,Calm,-,N/A,,Scattered Clouds,0,2013-09-04 03:35:00
10:55 PM,80.1,65.7,61,29.95,10.0,SSE,4.6,-,N/A,,Clear,160,2013-09-04 03:55:00
11:15 PM,79.9,65.5,61,29.96,10.0,Calm,Calm,-,N/A,,Clear,0,2013-09-04 04:15:00
11:35 PM,79.0,65.7,64,29.97,10.0,SSE,3.5,-,N/A,,Clear,160,2013-09-04 04:35:00
11:55 PM,79.0,65.8,64,29.97,10.0,Calm,Calm,-,N/A,,Scattered Clouds,0,2013-09-04 04:55:00